Location: Leeds
(37.2390°N, 113.3580°W)
Time: 01:01:50
(UTC-06:00)

Daily predictions for brighter satellites

Satellite Brightness Start Highest point End
(mag) Time Altitude Azimuth Time Altitude Azimuth Time Altitude Azimuth
CZ-4C R/B 4.4 04:03:03 25° SE 04:03:03 25° SE 04:06:03 10° SE
Cosmos 2227 Rocket 4.3 04:03:28 21° E 04:03:28 21° E 04:07:07 10° NE
Lacrosse 5 4.3 04:08:52 18° E 04:08:52 18° E 04:10:37 10° ENE
Cosmos 2219 Rocket 3.8 04:07:11 10° N 04:12:13 31° ENE 04:17:13 10° ESE
Cosmos 2297 Rocket 4.4 04:11:41 17° ESE 04:12:35 18° E 04:16:17 10° ENE
CZ-2D R/B 4.2 04:08:53 10° NNE 04:10:37 22° NNE 04:10:37 22° NNE
Okean O Rocket 4.3 04:14:17 10° NE 04:15:59 17° ENE 04:15:59 17° ENE
Cosmos 2344 3.5 04:26:43 84° NE 04:26:43 84° NE 04:34:54 10° NNE
Lacrosse 5 rocket 4.2 04:33:14 15° NNE 04:33:14 15° NNE 04:34:14 10° NNE
NOSS 3-4 (A) 4.0 04:31:05 53° ESE 04:31:05 53° ESE 04:36:57 10° NE
NOSS 3-4 (C) 4.1 04:31:09 52° ESE 04:31:09 52° ESE 04:37:03 10° NE
Resurs 1-4 Rocket 3.8 04:38:00 10° N 04:40:10 25° N 04:40:10 25° N
Cosmos 2333 Rocket 3.0 04:43:45 10° N 04:49:17 48° ENE 04:54:45 10° SE
ATLAS 2AS CENTAUR R/B 4.3 04:51:57 24° NW 04:52:08 24° NW 04:58:24 10° NNE
Cosmos 1727 Rocket 4.0 05:03:38 44° S 05:05:47 78° E 05:12:05 10° N
Cosmos 923 Rocket 4.2 05:03:41 10° NNW 05:09:02 69° ENE 05:14:21 10° SSE
DELTA 2 R/B (1) 4.0 05:11:43 49° SSE 05:11:59 49° SSE 05:17:22 10° E
CZ-4B R/B 3.3 05:08:38 10° NNE 05:14:02 70° ESE 05:16:14 37° S
Hubble Space Telescope 3.3 05:16:50 12° SSE 05:16:50 12° SSE 05:17:25 10° SE
OTV 4 3.6 05:18:30 12° E 05:18:30 12° E 05:18:47 10° E
Cosmos 2237 Rocket 2.5 05:10:56 10° NNW 05:16:34 67° ENE 05:22:08 10° SSE
FALCON 9 R/B 4.0 05:14:24 23° S 05:17:52 37° SE 05:34:15 10° ENE
Okean-O 4.4 05:15:16 10° NE 05:19:11 30° E 05:23:04 10° SSE
RESURS DK-1 2.6 05:22:24 68° ENE 05:22:24 68° ENE 05:26:15 10° NNE
NOSS 3-2 (A) 4.0 05:15:05 10° NNW 05:22:43 89° NE 05:30:53 10° SSE
ATLAS 5 CENTAUR R/B 2.7 05:20:06 10° NNW 05:26:09 67° NE 05:32:37 10° SE
Meteor 1-13 Rocket 4.2 05:25:11 54° SW 05:26:23 69° W 05:32:09 10° N
Cosmos 1980 3.6 05:24:21 10° NNW 05:30:04 86° WSW 05:35:45 10° SSE
Cosmos 1346 Rocket 3.2 05:32:28 37° SSE 05:33:50 62° E 05:37:46 10° NNE
SL-16 R/B 3.5 05:30:03 10° N 05:35:24 41° ENE 05:40:44 10° SE
Gbstr 26 Del rocket 4.4 05:31:03 26° WNW 05:35:40 72° SW 05:43:46 10° SE
Cosmos 1153 Rocket 4.4 05:30:21 10° N 05:36:42 80° W 05:43:05 10° S
USA 215 4.2 05:35:32 10° S 05:39:43 27° SW 05:39:43 27° SW
Cosmos 1605 Rocket 4.1 05:36:03 10° NNW 05:41:55 48° W 05:47:50 10° SSW
ADEOS II 2.5 05:37:05 10° NNE 05:42:18 62° E 05:47:30 10° S
NOSS 0 Rocket 3.9 05:37:45 10° NNW 05:43:50 56° WSW 05:49:53 10° S
CZ-4C R/B 3.9 05:48:29 25° SW 05:48:29 25° SW 05:53:01 10° SSW
Cosmos 2227 Rocket 2.5 05:45:19 40° W 05:46:35 47° WNW 05:52:03 10° N
Lacrosse 5 2.3 05:48:06 39° WNW 05:49:10 45° NW 05:54:01 10° NNE
Cosmos 1025 Rocket 3.2 05:50:39 47° W 05:51:04 49° W 05:55:17 10° N
CZ-2D R/B 4.1 05:51:10 10° NW 05:51:57 12° NW 05:51:57 12° NW
Okean O Rocket 2.5 05:50:05 10° N 05:53:27 30° WNW 05:53:27 30° WNW
Cosmos 2297 Rocket 2.3 05:53:33 31° SW 05:56:06 55° WNW 06:01:39 10° NNE
Cosmos 2219 Rocket 2.7 05:51:04 10° NW 05:56:07 34° WSW 06:01:09 10° SSW
Tiangong 1 1.9 05:57:01 36° NNW 05:57:08 36° NNW 05:59:59 10° ENE
CZ-2C R/B 4.2 05:59:35 35° WSW 05:59:47 35° W 06:04:00 10° NNW
NOSS 3-2 (C) 4.0 05:52:28 10° NW 06:00:03 68° WSW 06:08:07 10° SSE
CENTAUR R/B 4.2 05:54:01 10° NNW 06:01:31 46° NE 06:09:24 10° ESE
CZ-4B R/B 3.7 05:58:07 10° N 06:02:07 35° WNW 06:02:56 32° W
Cosmos 2112 Rocket 4.0 05:57:11 10° NNW 06:02:23 58° WSW 06:07:30 10° S
Cosmos 1606 Rocket 3.6 06:00:16 10° NNW 06:04:33 54° W 06:08:46 10° S
ADEOS Rocket 3.3 05:58:07 10° N 06:05:11 63° WNW 06:11:32 10° SSW
Cosmos 1680 Rocket 3.8 06:02:18 10° NNW 06:07:17 43° WSW 06:12:12 10° S
Cosmos 292 Rocket 3.7 06:03:07 10° NNW 06:08:00 83° WSW 06:12:50 10° SSE
Delta 2 Rocket 3.0 06:11:07 32° WSW 06:12:39 67° S 06:16:08 10° ESE
Cosmos 2061 Rocket 4.0 06:06:40 10° N 06:12:58 74° W 06:19:18 10° S
USA 129 3.1 06:11:34 10° SSE 06:13:29 38° ENE 06:15:18 10° N
NOSS 2-2 (E) 4.3 06:09:55 10° SSW 06:13:52 50° ESE 06:18:18 10° NE
Okean 2 3.7 06:12:04 14° SSW 06:15:24 45° W 06:19:23 10° N
Cosmos 1726 Rocket 3.7 06:11:43 10° NNW 06:15:56 48° W 06:20:07 10° SSW
Meteor 1-31 Rocket 2.9 06:13:21 10° NNE 06:17:15 77° E 06:21:11 10° S
Meteor 1-15 Rocket 4.1 06:11:53 10° NNW 06:17:26 72° W 06:23:01 10° S
Cosmos 1802 Rocket 3.9 06:11:59 10° N 06:18:09 76° W 06:24:15 10° S
Cosmos 2100 Rocket 4.0 06:13:01 10° NNW 06:19:06 58° W 06:25:15 10° S
Cosmos 1602 Rocket 3.9 06:17:38 10° S 06:22:04 70° E 06:26:28 10° NNE
Cosmos 2298 Rocket 4.1 06:18:04 10° SSW 06:23:15 56° WNW 06:28:29 10° N
Aureole 2 Rocket 2.8 06:20:16 10° NNW 06:23:43 62° ENE 06:26:49 10° SSE
Cosmos 1892 Rocket 4.2 06:20:12 11° SW 06:24:06 35° WNW 06:28:13 10° NNW
Feng Yun 1-1 Rocket 4.4 06:24:09 10° N 06:29:40 58° WNW 06:35:19 10° SSW
Thor Agena Rocket 4.1 06:25:44 10° SSW 06:30:32 35° W 06:35:23 10° NNW
Cosmos 1725 Rocket 4.2 06:26:14 10° N 06:32:33 78° E 06:38:48 10° S
Cosmos 2333 Rocket 3.3 06:29:00 10° NW 06:33:07 21° W 06:37:12 10° SSW
PSLV R/B 4.5 06:30:37 10° NNW 06:34:20 28° WNW 06:38:00 10° SW
OPS 6432 4.3 06:30:55 10° SW 06:34:30 64° WNW 06:37:36 10° NNE
SL-24 R/B 4.4 06:30:28 10° NNE 06:34:48 65° E 06:38:38 10° S
Cosmos 2150 Rocket 4.3 06:33:14 10° SW 06:38:10 46° WNW 06:43:07 10° N
Cosmos 1515 3.6 06:38:17 10° S 06:42:06 75° W 06:45:57 10° N
Cosmos 1666 4.1 06:43:21 10° NW 06:46:07 19° W 06:48:51 10° SW
Cosmos 2098 Rocket 3.3 06:44:42 10° NNW 06:48:29 47° W 06:53:14 10° SSW
Cosmos 1812 Rocket 3.7 06:44:39 10° N 06:49:06 81° E 06:53:34 10° S
Cosmos 990 Rocket 4.0 06:45:10 10° SSW 06:50:22 64° WNW 06:55:36 10° NNE
Cosmos 2228 3.6 06:46:39 10° NNW 06:50:42 36° W 06:54:41 10° SSW
OTV 4 1.6 06:49:23 11° W 06:51:29 24° SSW 06:53:46 10° SSE
Ariane Rocket 3.2 06:46:48 10° NNE 06:51:56 82° ESE 06:57:02 10° SSW
SeaSat 1 3.8 06:49:53 10° SE 06:54:32 44° ENE 06:59:12 10° NNW
Cosmos 972 Rocket 4.2 06:49:42 10° SSW 06:55:01 74° WNW 07:01:02 10° NNE
Okean-O 3.9 06:52:04 10° NNW 06:55:29 22° WNW 06:58:53 10° WSW
Cosmos 2016 Rocket 4.3 06:50:01 10° NNW 06:55:59 44° W 07:01:51 10° SSW
DELTA 2 R/B (1) 3.7 06:52:47 10° W 06:58:21 78° N 07:03:58 10° ENE
Cosmos 1340 2.8 06:56:01 10° S 06:59:47 80° E 07:03:36 10° N
Cosmos 2237 Rocket 3.7 06:57:03 10° WNW 06:59:56 14° W 07:02:48 10° SW
Cosmos 2227 4.3 06:55:43 10° SSW 07:01:25 64° WNW 07:07:09 10° NNE
